XAFOF MMMX-MMGL

Flight info

Callsign XAFOF
Flight time N/A
Altitude 43000
Route OVAG3A/05R OVAGO UT123 IGSON IGSO1B/29L
Aircraft GLF4/M-SFGHIRWXY/S

Departure

Time N/A
Airport Mexico City Benito Juárez International Airport (MMMX)

Arrival

Time 2026-05-06 02:15
Airport Guadalajara International Airport (MMGL)
Time Latitude Longitude Altitude Speed Heading
2026-05-06 01:55 19.66131 -101.58347 34979 ft 496 kts 290°
2026-05-06 01:55 19.67319 -101.61850 34979 ft 495 kts 290°
2026-05-06 01:56 19.69468 -101.68195 34982 ft 495 kts 290°
2026-05-06 01:56 19.71466 -101.74101 34946 ft 479 kts 290°
2026-05-06 01:57 19.72626 -101.77535 33814 ft 469 kts 290°
2026-05-06 01:57 19.73674 -101.80641 32799 ft 464 kts 290°
2026-05-06 01:57 19.74750 -101.83832 31749 ft 461 kts 290°
2026-05-06 01:57 19.75770 -101.86857 30814 ft 456 kts 290°
2026-05-06 01:58 19.76817 -101.89964 30280 ft 449 kts 290°
2026-05-06 01:58 19.77875 -101.93102 29727 ft 451 kts 290°
2026-05-06 01:58 19.78952 -101.96304 29168 ft 454 kts 290°
2026-05-06 01:58 19.80021 -101.99480 28614 ft 454 kts 290°
2026-05-06 01:59 19.81084 -102.02643 28058 ft 451 kts 290°
2026-05-06 01:59 19.82128 -102.05753 27550 ft 446 kts 290°
2026-05-06 01:59 19.83181 -102.08887 27115 ft 441 kts 290°
2026-05-06 01:59 19.84222 -102.11990 26681 ft 439 kts 290°
2026-05-06 02:00 19.85268 -102.15110 26244 ft 439 kts 290°
2026-05-06 02:00 19.86290 -102.18161 25816 ft 437 kts 290°
2026-05-06 02:00 19.87321 -102.21241 25380 ft 435 kts 290°
2026-05-06 02:00 19.88307 -102.24186 24962 ft 432 kts 290°
2026-05-06 02:01 19.89310 -102.27187 24534 ft 430 kts 290°
2026-05-06 02:01 19.90313 -102.30187 24103 ft 427 kts 290°
2026-05-06 02:01 19.91306 -102.33155 23686 ft 425 kts 290°
2026-05-06 02:01 19.92301 -102.36132 23358 ft 422 kts 290°
2026-05-06 02:02 19.93292 -102.39101 23027 ft 421 kts 290°
2026-05-06 02:02 19.94271 -102.42030 22699 ft 420 kts 290°
2026-05-06 02:02 19.95208 -102.44845 22384 ft 419 kts 290°
2026-05-06 02:02 19.96199 -102.47818 22049 ft 417 kts 290°
2026-05-06 02:03 19.97171 -102.50741 21719 ft 415 kts 290°
2026-05-06 02:03 19.98151 -102.53687 21384 ft 414 kts 290°
2026-05-06 02:03 19.99078 -102.56477 21064 ft 405 kts 290°
2026-05-06 02:03 20.00025 -102.59124 20738 ft 388 kts 300°
2026-05-06 02:04 20.01239 -102.60833 20514 ft 373 kts 318°
2026-05-06 02:04 20.03132 -102.62672 20204 ft 360 kts 313°
2026-05-06 02:04 20.04878 -102.64631 19876 ft 359 kts 315°
2026-05-06 02:04 20.06561 -102.66443 19566 ft 362 kts 315°
2026-05-06 02:05 20.08261 -102.68251 19257 ft 364 kts 315°
2026-05-06 02:05 20.10126 -102.70227 18556 ft 370 kts 316°
2026-05-06 02:05 20.11940 -102.72148 17785 ft 370 kts 316°
2026-05-06 02:05 20.13780 -102.74095 17000 ft 369 kts 316°
2026-05-06 02:06 20.15598 -102.76019 16223 ft 368 kts 316°
2026-05-06 02:06 20.17406 -102.77934 15466 ft 366 kts 316°
2026-05-06 02:06 20.19197 -102.79829 14793 ft 362 kts 316°
2026-05-06 02:06 20.20964 -102.81701 14119 ft 359 kts 315°
2026-05-06 02:07 20.22530 -102.83360 13517 ft 356 kts 315°
2026-05-06 02:07 20.24385 -102.85327 12797 ft 353 kts 315°
2026-05-06 02:07 20.26083 -102.87128 12326 ft 344 kts 315°
2026-05-06 02:07 20.27757 -102.88904 11944 ft 334 kts 315°
2026-05-06 02:08 20.29373 -102.90619 11565 ft 326 kts 315°
2026-05-06 02:08 20.30982 -102.92327 11185 ft 323 kts 315°
2026-05-06 02:08 20.32583 -102.94026 10808 ft 323 kts 315°
2026-05-06 02:08 20.34194 -102.95737 10429 ft 323 kts 315°
2026-05-06 02:09 20.35781 -102.97423 10053 ft 321 kts 315°
2026-05-06 02:09 20.37353 -102.99093 9679 ft 319 kts 315°
2026-05-06 02:09 20.38428 -103.00235 9414 ft 313 kts 315°
2026-05-06 02:09 20.39645 -103.01691 9023 ft 261 kts 297°
2026-05-06 02:10 20.40312 -103.03143 8961 ft 257 kts 295°
2026-05-06 02:10 20.41185 -103.05090 8927 ft 266 kts 295°
2026-05-06 02:10 20.41952 -103.06853 8914 ft 262 kts 295°
2026-05-06 02:10 20.42660 -103.08510 8904 ft 229 kts 295°
2026-05-06 02:11 20.43292 -103.09998 8645 ft 211 kts 294°
2026-05-06 02:11 20.43877 -103.11380 8405 ft 207 kts 294°
2026-05-06 02:11 20.44468 -103.12781 8166 ft 211 kts 294°
2026-05-06 02:11 20.45086 -103.14246 7907 ft 213 kts 294°
2026-05-06 02:12 20.45692 -103.15684 7641 ft 213 kts 294°
2026-05-06 02:12 20.46299 -103.17123 7372 ft 212 kts 294°
2026-05-06 02:12 20.46900 -103.18550 7101 ft 211 kts 293°
2026-05-06 02:12 20.47498 -103.19971 6833 ft 210 kts 293°
2026-05-06 02:13 20.48095 -103.21389 6564 ft 210 kts 293°
2026-05-06 02:13 20.48699 -103.22825 6293 ft 209 kts 293°
2026-05-06 02:13 20.49302 -103.24260 6023 ft 209 kts 293°
2026-05-06 02:13 20.49873 -103.25617 5794 ft 195 kts 293°
2026-05-06 02:14 20.50311 -103.26708 5593 ft 178 kts 291°
2026-05-06 02:14 20.50744 -103.27802 5356 ft 164 kts 293°
2026-05-06 02:14 20.51148 -103.28714 5204 ft 149 kts 294°
2026-05-06 02:14 20.51574 -103.29669 5034 ft 137 kts 293°
2026-05-06 02:15 20.51903 -103.30458 5025 ft 92 kts 294°
2026-05-06 02:15 20.52084 -103.30910 5028 ft 57 kts 292°
2026-05-06 02:15 20.52215 -103.31191 5030 ft 35 kts 295°
2026-05-06 02:15 20.52373 -103.31474 5028 ft 39 kts 307°
2026-05-06 02:16 20.52451 -103.31549 5028 ft 0 kts 325°
2026-05-06 02:16 20.52529 -103.31602 5028 ft 13 kts 353°
2026-05-06 02:16 20.52582 -103.31564 5028 ft 4 kts 46°
2026-05-06 02:16 20.52589 -103.31524 5029 ft 0 kts 107°
2026-05-06 02:19 20.52532 -103.31342 5027 ft 48 kts 108°
2026-05-06 02:19 20.52437 -103.31044 5027 ft 36 kts 111°
2026-05-06 02:20 20.52727 -103.30771 5020 ft 32 kts 30°
2026-05-06 02:20 20.52899 -103.30652 5017 ft 24 kts 66°
2026-05-06 02:20 20.52878 -103.30516 5017 ft 23 kts 40°
2026-05-06 02:21 20.52979 -103.30450 5015 ft 0 kts 101°